Total_Precipitation_Accumulation
1.66 1.89 2.44 3.12 3.50 4.00 4.44 4.42 4.20 4.22 4.29 4.35 4.14 4.28 4.47 4.75 5.02 4.95 4.87 4.78 4.66 4.59 4.67 4.70 4.67 4.51 4.40 4.26 4.15 4.14 4.06 3.80 3.58 3.55 3.21 2.76 2.37 2.21 2.13 2.16 2.24 2.24 2.22
1.86 2.16 2.68 3.03 3.40 3.74 3.97 4.24 4.37 4.38 4.15 4.49 4.78 5.04 5.35 5.36 5.65 5.94 6.00 5.80 5.51 5.31 5.17 5.18 4.88 4.56 4.39 4.23 4.06 3.99 3.84 3.51 3.37 3.39 3.41 2.93 2.46 2.01 1.75 1.85 1.83 1.88 2.05
2.13 2.51 2.86 3.00 3.22 3.56 3.89 4.20 4.51 4.60 4.50 4.95 5.46 5.90 6.22 6.13 6.17 6.21 6.22 6.15 5.72 5.38 5.17 4.96 4.79 4.59 4.41 4.22 4.12 4.02 3.89 3.56 3.35 3.28 3.50 3.33 2.86 2.29 1.96 1.78 1.78 1.88 1.98
1.96 2.31 2.63 3.07 3.04 3.29 3.67 3.95 4.35 4.76 5.02 5.37 5.86 6.40 6.74 6.94 6.78 6.45 6.18 5.83 5.39 5.02 4.65 4.48 4.52 4.42 4.21 3.98 3.66 3.55 3.55 3.46 3.26 3.16 3.02 2.98 2.92 2.71 2.38 2.09 2.05 2.08 2.03
1.88 2.09 2.23 2.58 2.83 3.04 3.39 3.79 4.12 4.50 5.10 5.85 6.45 6.92 7.27 7.27 6.73 6.16 5.58 5.15 4.78 4.43 4.16 4.07 4.17 4.08 3.82 3.63 3.35 3.15 3.00 2.99 3.01 3.01 2.91 2.79 2.71 2.53 2.40 2.22 2.11 2.07 1.99
1.96 2.10 2.22 2.51 2.71 2.80 3.06 3.53 4.04 4.37 4.91 5.64 6.27 6.61 6.80 6.72 6.30 5.65 5.10 4.69 4.25 3.87 3.52 3.30 3.25 3.17 2.98 2.89 2.85 2.78 2.73 2.73 2.76 2.77 2.69 2.61 2.58 2.51 2.49 2.35 2.10 2.04 2.08
2.15 2.14 2.12 2.21 2.46 2.59 2.86 3.29 3.73 4.18 4.53 4.93 5.46 5.53 5.61 5.39 5.02 4.80 4.46 3.97 3.56 3.18 2.80 2.57 2.48 2.45 2.41 2.38 2.40 2.43 2.43 2.41 2.48 2.45 2.41 2.35 2.27 2.28 2.44 2.54 2.37 2.20 2.06
1.98 2.01 1.96 2.15 2.45 2.70 2.91 3.14 3.42 3.77 4.09 4.20 4.31 4.21 4.09 4.01 3.89 3.69 3.30 2.94 2.70 2.52 2.38 2.21 2.09 2.06 2.09 2.09 2.20 2.18 2.10 2.09 2.12 2.05 2.10 2.09 2.02 2.13 2.31 2.45 2.63 2.59 2.30
1.80 1.87 1.94 2.12 2.35 2.63 2.76 2.92 3.05 3.17 3.19 3.17 3.20 3.16 3.13 3.01 2.98 2.88 2.56 2.29 2.15 2.01 1.96 1.91 1.87 1.79 1.75 1.72 1.72 1.72 1.74 1.80 1.80 1.76 1.75 1.74 1.78 1.91 2.04 2.20 2.46 2.70 2.59
1.83 1.85 1.97 2.16 2.10 2.11 2.26 2.45 2.56 2.66 2.63 2.52 2.42 2.45 2.45 2.34 2.19 2.05 1.91 1.78 1.72 1.63 1.62 1.57 1.55 1.59 1.61 1.54 1.46 1.41 1.42 1.47 1.54 1.60 1.57 1.54 1.54 1.63 1.68 1.80 1.98 2.27 2.49
1.92 1.85 1.96 2.01 1.85 1.71 1.69 1.84 1.98 2.15 2.20 2.12 2.04 2.07 2.03 1.95 1.81 1.72 1.63 1.54 1.47 1.44 1.39 1.39 1.39 1.35 1.33 1.32 1.35 1.31 1.33 1.42 1.44 1.41 1.42 1.43 1.48 1.56 1.52 1.59 1.71 1.88 2.12
1.95 1.83 1.82 1.87 1.80 1.66 1.53 1.61 1.73 1.72 1.74 1.75 1.82 1.92 1.82 1.75 1.67 1.64 1.61 1.54 1.38 1.36 1.35 1.36 1.29 1.14 1.09 1.18 1.26 1.25 1.22 1.34 1.35 1.30 1.36 1.37 1.41 1.48 1.51 1.60 1.70 1.79 1.99
2.12 2.00 1.85 1.79 1.80 1.62 1.52 1.55 1.60 1.57 1.52 1.49 1.51 1.60 1.61 1.58 1.55 1.41 1.38 1.37 1.33 1.31 1.26 1.21 1.20 1.12 1.02 1.04 1.06 1.10 1.09 1.15 1.21 1.21 1.28 1.33 1.40 1.40 1.45 1.53 1.60 1.71 1.82
2.09 1.91 1.84 1.80 1.70 1.58 1.51 1.51 1.44 1.33 1.35 1.38 1.50 1.51 1.52 1.57 1.59 1.52 1.44 1.36 1.29 1.24 1.20 1.12 1.07 1.05 1.00 0.89 0.85 0.89 0.98 1.08 1.08 1.07 1.18 1.24 1.30 1.31 1.39 1.43 1.52 1.60 1.80
2.02 1.94 1.82 1.70 1.54 1.40 1.33 1.29 1.25 1.17 1.15 1.21 1.36 1.46 1.40 1.37 1.42 1.48 1.38 1.22 1.15 1.06 1.04 0.98 0.93 0.95 0.88 0.76 0.79 0.82 0.84 0.96 1.00 1.00 1.06 1.11 1.14 1.16 1.21 1.21 1.35 1.53 1.72
2.12 2.05 1.92 1.77 1.55 1.42 1.36 1.30 1.20 1.08 1.06 1.11 1.27 1.36 1.33 1.29 1.29 1.34 1.30 1.23 1.16 1.10 1.06 1.02 0.97 0.91 0.78 0.76 0.72 0.73 0.78 0.88 0.98 1.08 1.08 1.00 0.99 0.96 0.92 0.96 1.08 1.27 1.52
2.12 2.07 1.99 1.82 1.59 1.48 1.43 1.48 1.32 1.14 1.15 1.17 1.19 1.24 1.29 1.32 1.31 1.29 1.28 1.29 1.30 1.27 1.17 1.06 1.01 0.95 0.83 0.73 0.61 0.60 0.68 0.87 1.01 1.11 1.10 0.92 0.84 0.96 0.96 0.98 1.00 1.09 1.22
2.24 2.20 2.03 1.82 1.59 1.41 1.36 1.34 1.29 1.20 1.24 1.19 1.12 1.13 1.14 1.17 1.16 1.20 1.25 1.26 1.26 1.21 1.13 1.04 1.01 0.97 0.77 0.65 0.57 0.58 0.64 0.78 0.83 0.87 0.95 1.03 1.03 0.96 1.01 1.02 1.12 1.18 1.27
2.12 2.06 1.87 1.74 1.64 1.49 1.39 1.33 1.29 1.29 1.22 1.12 1.06 1.00 0.95 1.00 1.02 1.06 1.18 1.29 1.28 1.16 1.04 0.96 0.95 0.92 0.77 0.69 0.64 0.63 0.67 0.74 0.71 0.68 0.74 0.83 0.87 0.87 0.94 1.05 1.24 1.30 1.40
1.63 1.59 1.51 1.46 1.45 1.36 1.32 1.32 1.32 1.28 1.19 1.08 0.97 0.89 0.90 0.98 0.99 1.03 1.13 1.21 1.25 1.12 0.93 0.85 0.88 0.83 0.79 0.70 0.59 0.56 0.58 0.69 0.71 0.74 0.79 0.77 0.70 0.75 0.85 1.05 1.31 1.48 1.53
1.39 1.29 1.25 1.30 1.31 1.22 1.25 1.28 1.23 1.16 1.01 0.93 0.90 0.90 0.95 1.03 1.03 1.12 1.19 1.14 1.04 1.01 0.93 0.87 0.86 0.76 0.64 0.55 0.46 0.46 0.51 0.61 0.70 0.76 0.85 0.85 0.72 0.66 0.73 0.94 1.17 1.35 1.40
1.46 1.33 1.28 1.24 1.21 1.20 1.28 1.29 1.19 1.00 0.89 0.86 0.88 0.94 0.96 0.91 0.91 1.08 1.15 1.07 1.01 0.98 0.95 0.93 0.86 0.73 0.59 0.50 0.44 0.39 0.39 0.44 0.63 0.80 0.83 0.84 0.78 0.73 0.79 0.94 1.11 1.24 1.43
1.45 1.37 1.28 1.20 1.15 1.14 1.20 1.19 1.02 0.81 0.76 0.84 0.96 1.01 0.95 1.02 1.01 1.00 1.04 1.06 1.05 0.95 0.87 0.86 0.80 0.73 0.65 0.56 0.44 0.39 0.38 0.42 0.54 0.71 0.79 0.76 0.72 0.82 1.03 1.16 1.26 1.42 1.65
1.27 1.17 1.10 1.05 0.99 0.93 0.91 0.90 0.79 0.71 0.77 0.89 0.97 0.98 1.00 1.09 1.08 0.99 0.86 0.83 0.84 0.81 0.76 0.74 0.69 0.70 0.72 0.58 0.48 0.49 0.48 0.50 0.57 0.70 0.84 0.89 0.89 1.04 1.22 1.36 1.46 1.58 1.68
1.13 1.05 0.97 0.88 0.77 0.72 0.68 0.65 0.63 0.64 0.75 0.81 0.87 0.88 0.88 0.95 1.02 0.93 0.77 0.71 0.64 0.57 0.56 0.56 0.53 0.59 0.59 0.49 0.46 0.43 0.48 0.56 0.62 0.70 0.87 1.01 1.04 1.15 1.30 1.43 1.50 1.55 1.56
0.98 0.98 0.89 0.79 0.70 0.66 0.63 0.59 0.56 0.58 0.70 0.75 0.73 0.69 0.72 0.78 0.81 0.81 0.74 0.56 0.42 0.35 0.31 0.32 0.35 0.35 0.36 0.34 0.33 0.34 0.40 0.47 0.59 0.74 1.02 1.11 1.09 1.13 1.21 1.33 1.43 1.44 1.42